DW1824 Weather Reports


time (UTC)temp
C
wind
direction
speed
KPH
gust
KPH
rain 1hr
cm
rain 24hr
cm
rain mn
cm
humidity
%
barometer
mb
20260906212325 30 130 1.6 4.8 0.00 0.00 0.00 70 1012.5
20260906211329 30 151 1.6 9.7 0.00 0.00 0.00 69 1012.7
20260906210334 30 139 3.2 11.3 0.00 0.00 0.00 69 1012.8
20260906205324 29 114 3.2 8.0 0.00 0.00 0.00 74 1012.9
20260906204330 28 137 3.2 8.0 0.00 0.00 0.00 75 1012.9
20260906203332 28 128 3.2 9.7 0.00 0.00 0.00 76 1013.0
20260906202340 28 128 4.8 6.4 0.00 0.00 0.00 76 1013.0
20260906201326 28 134 3.2 11.3 0.00 0.00 0.00 77 1013.0
20260906200349 27 140 3.2 11.3 0.00 0.00 0.00 79 1013.1
20260906195334 27 142 4.8 8.0 0.00 0.00 0.00 81 1013.5
20260906194325 27 136 3.2 6.4 0.00 0.00 0.00 81 1013.8
20260906193327 27 131 0.0 8.0 0.00 0.00 0.00 80 1013.8
20260906192332 27 128 6.4 16.1 0.00 0.00 0.00 79 1013.6
20260906191338 27 141 6.4 11.3 0.00 0.00 0.00 78 1013.8
20260906190340 28 76 8.0 14.5 0.00 0.00 0.00 77 1014.1
20260906185405 28 141 6.4 12.9 0.00 0.00 0.00 77 1014.1
20260906184348 30 141 8.0 14.5 0.00 0.00 0.00 75 1014.0
20260906183330 30 118 3.2 9.7 0.00 0.00 0.00 75 1013.9
20260906182340 30 131 3.2 6.4 0.00 0.00 0.00 75 1014.2
20260906181325 30 106 3.2 8.0 0.00 0.00 0.00 74 1014.4
20260906180327 31 5 0.0 1.6 0.00 0.00 0.00 73 1014.2
20260906175332 31 10 1.6 4.8 0.00 0.00 0.00 72 1014.0
20260906174338 30 142 1.6 3.2 0.00 0.00 0.00 73 1014.1
20260906173341 30 360 0.0 1.6 0.00 0.00 0.00 74 1014.1
20260906172330 30 28 0.0 3.2 0.00 0.00 0.00 74 1014.4
20260906171337 29 193 0.0 1.6 0.00 0.00 0.00 76 1014.6
20260906170338 28 193 0.0 0.0 0.00 0.00 0.00 78 1014.8
20260906165403 28 193 0.0 1.6 0.00 0.00 0.00 79 1014.7
20260906164348 28 193 0.0 1.6 0.00 0.00 0.00 77 1014.8
20260906163328 28 207 1.6 4.8 0.00 0.00 0.00 74 1014.8
20260906162333 29 164 1.6 4.8 0.00 0.00 0.00 75 1014.8
20260906161338 29 275 1.6 3.2 0.00 0.00 0.00 71 1014.7
20260906160359 29 291 1.6 4.8 0.00 0.00 0.00 71 1014.7
20260906155329 30 248 3.2 4.8 0.00 0.00 0.00 70 1014.6
20260906154354 30 275 1.6 12.9 0.00 0.00 0.00 74 1014.6
20260906153333 30 301 0.0 3.2 0.00 0.00 0.00 75 1014.6
20260906152338 30 108 0.0 1.6 0.00 0.00 0.00 76 1014.5
20260906151324 30 349 0.0 3.2 0.00 0.00 0.00 77 1014.5
20260906150328 30 81 1.6 3.2 0.00 0.00 0.00 77 1014.5
20260906145333 30 232 0.0 1.6 0.00 0.00 0.00 77 1014.5
20260906144340 29 232 0.0 3.2 0.00 0.00 0.00 79 1014.4
20260906143325 29 266 0.0 3.2 0.00 0.00 0.00 82 1014.5
20260906142331 28 166 0.0 1.6 0.00 0.00 0.00 83 1014.5
20260906141338 28 166 0.0 4.8 0.00 0.00 0.00 84 1014.4
20260906140401 28 120 1.6 6.4 0.00 0.00 0.00 84 1014.4
20260906135326 28 181 0.0 3.2 0.00 0.00 0.00 86 1014.4
20260906134331 28 131 0.0 0.0 0.00 0.00 0.00 88 1014.3
20260906133354 27 131 0.0 1.6 0.00 0.00 0.00 89 1014.4
20260906132339 27 125 0.0 4.8 0.00 0.00 0.00 90 1014.3
20260906131329 27 133 0.0 1.6 0.00 0.00 0.00 90 1014.2
20260906130333 26 130 1.6 3.2 0.00 0.00 0.00 93 1014.0
20260906125338 26 187 0.0 0.0 0.00 0.00 0.00 94 1014.0
20260906124324 25 186 0.0 0.0 0.00 0.00 0.00 94 1013.9
20260906123327 25 186 0.0 0.0 0.00 0.00 0.00 92 1013.7
20260906122331 25 186 0.0 0.0 0.00 0.00 0.00 93 1013.5
20260906121337 25 186 0.0 0.0 0.00 0.00 0.00 93 1013.2
20260906120324 25 187 0.0 0.0 0.00 0.00 0.00 93 1013.1
20260906115329 25 186 0.0 0.0 0.00 0.00 0.00 93 1012.9
20260906114336 25 186 0.0 0.0 0.00 0.00 0.00 93 1012.7
20260906113338 25 186 0.0 0.0 0.00 0.00 0.00 93 1012.7
20260906112324 25 186 0.0 0.0 0.00 0.00 0.00 93 1012.6
20260906111330 25 186 0.0 0.0 0.00 0.00 0.00 93 1012.6
20260906110353 26 186 0.0 0.0 0.00 0.00 0.00 93 1012.7
20260906105336 26 186 0.0 0.0 0.00 0.00 0.00 92 1012.6
20260906104326 26 186 0.0 0.0 0.00 0.00 0.00 92 1012.6
20260906103326 26 186 0.0 0.0 0.00 0.00 0.00 92 1012.6
20260906102332 26 186 0.0 0.0 0.00 0.00 0.00 92 1012.6
20260906101356 26 186 0.0 0.0 0.00 0.00 0.00 92 1012.5
20260906100340 26 186 0.0 1.6 0.00 0.00 0.00 92 1012.3
20260906095325 26 186 0.0 0.0 0.00 0.00 0.00 92 1012.3
20260906094329 26 186 0.0 0.0 0.00 0.00 0.00 91 1012.2
20260906093330 26 186 0.0 0.0 0.00 0.00 0.00 91 1012.2
20260906092336 26 186 0.0 0.0 0.00 0.00 0.00 91 1012.0
20260906091341 26 186 0.0 0.0 0.00 0.00 0.00 90 1012.1
20260906090324 26 186 0.0 0.0 0.00 0.00 0.00 90 1012.1
20260906085330 26 186 0.0 1.6 0.00 0.00 0.00 90 1012.1
20260906084334 26 186 0.0 1.6 0.00 0.00 0.00 90 1012.1
20260906083335 26 186 0.0 0.0 0.00 0.00 0.00 91 1012.0
20260906082341 26 186 0.0 0.0 0.00 0.00 0.00 90 1011.9
20260906081331 26 186 0.0 0.0 0.00 0.00 0.00 90 1012.1
20260906080354 26 186 0.0 1.6 0.00 0.00 0.00 89 1012.2
20260906075339 26 186 0.0 1.6 0.00 0.00 0.00 89 1012.3
20260906074404 26 186 0.0 0.0 0.00 0.00 0.00 89 1012.1
20260906073325 26 186 0.0 1.6 0.00 0.00 0.00 89 1012.2
20260906072330 26 186 0.0 1.6 0.00 0.00 0.00 89 1012.3
20260906071336 27 186 0.0 1.6 0.00 0.00 0.00 89 1012.5
20260906070340 26 186 0.0 1.6 0.00 0.00 0.00 89 1012.7
20260906065329 26 186 0.0 1.6 0.00 0.00 0.00 89 1012.8
20260906064336 27 186 0.0 1.6 0.00 0.00 0.00 88 1012.9
20260906063339 27 201 0.0 1.6 0.00 0.00 0.00 88 1012.8
20260906062345 27 179 0.0 1.6 0.00 0.00 0.00 88 1012.8
20260906061329 27 179 0.0 0.0 0.00 0.00 0.00 88 1012.9
20260906060351 27 179 0.0 0.0 0.00 0.00 0.00 88 1012.9
20260906055334 27 180 0.0 1.6 0.00 0.00 0.00 87 1012.9
20260906054339 27 180 0.0 1.6 0.00 0.00 0.00 87 1012.7
20260906053326 27 160 0.0 0.0 0.00 0.00 0.00 87 1012.6
20260906052332 27 160 0.0 3.2 0.00 0.00 0.00 87 1012.7
20260906051339 27 183 0.0 3.2 0.00 0.00 0.00 87 1012.6
20260906050342 27 170 0.0 1.6 0.00 0.00 0.00 87 1012.8
20260906045327 27 147 0.0 1.6 0.00 0.00 0.00 86 1012.9
20260906044332 27 139 0.0 0.0 0.00 0.00 0.00 86 1013.1
20260906043335 26 169 0.0 3.2 0.00 0.00 0.00 86 1013.1
20260906042327 26 148 1.6 1.6 0.00 0.00 0.00 85 1013.0
20260906041332 26 129 0.0 1.6 0.00 0.00 0.00 84 1013.1
20260906040335 26 128 0.0 3.2 0.00 0.00 0.00 83 1013.0
20260906035342 26 129 1.6 3.2 0.00 0.00 0.00 82 1013.1
20260906034327 26 129 1.6 3.2 0.00 0.00 0.00 82 1013.0
20260906033352 26 360 0.0 1.6 0.00 0.00 0.00 81 1013.0
20260906032336 27 360 0.0 0.0 0.00 0.00 0.00 81 1012.9
20260906031324 27 360 0.0 0.0 0.00 0.00 0.00 80 1012.9
20260906030327 27 360 0.0 1.6 0.00 0.00 0.00 79 1012.8
20260906025334 27 360 0.0 1.6 0.00 0.00 0.00 79 1012.7
20260906024340 27 360 0.0 0.0 0.00 0.00 0.00 78 1012.8
20260906023343 27 360 0.0 0.0 0.00 0.00 0.00 77 1012.5
20260906022348 27 360 0.0 0.0 0.00 0.00 0.00 76 1012.3
20260906021332 27 360 0.0 0.0 0.00 0.00 0.00 75 1012.1
20260906020328 28 360 0.0 1.6 0.00 0.00 0.00 75 1011.9
20260906015338 28 360 0.0 0.0 0.00 0.00 0.00 74 1011.8
20260906014324 28 360 0.0 1.6 0.00 0.00 0.00 74 1011.7
20260906013328 28 360 0.0 1.6 0.00 0.00 0.00 73 1011.6
20260906012333 28 5 0.0 1.6 0.00 0.00 0.00 73 1011.6
20260906011340 28 360 0.0 3.2 0.00 0.00 0.00 72 1011.6
20260906010324 28 39 0.0 1.6 0.00 0.00 0.00 72 1011.4
20260906005329 29 29 0.0 3.2 0.00 0.00 0.00 72 1011.5
20260906004339 29 114 0.0 1.6 0.00 0.00 0.00 71 1011.6
20260906003342 29 30 0.0 3.2 0.00 0.00 0.00 70 1011.7
20260906002326 29 350 1.6 6.4 0.00 0.00 0.00 69 1011.8
20260906001331 30 10 1.6 4.8 0.00 0.00 0.00 69 1011.8
20260906000334 30 51 0.0 3.2 0.00 0.00 0.00 68 1011.9
20260905235340 30 179 1.6 8.0 0.00 0.00 0.00 67 1011.8
20260905234404 31 33 3.2 6.4 0.00 0.00 0.00 66 1011.9
20260905233329 31 106 0.0 6.4 0.00 0.00 0.00 68 1011.7
20260905232336 31 127 0.0 11.3 0.00 0.00 0.00 67 1011.7
20260905231341 31 118 4.8 12.9 0.00 0.00 0.00 65 1011.7
20260905230326 31 124 3.2 12.9 0.00 0.00 0.00 64 1011.4
20260905225331 31 128 8.0 12.9 0.00 0.00 0.00 63 1011.4
20260905224338 32 128 9.7 16.1 0.00 0.00 0.00 62 1011.3
20260905223340 32 126 6.4 20.9 0.00 0.00 0.00 62 1011.3
20260905222329 32 138 16.1 20.9 0.00 0.00 0.00 61 1011.3
20260905221333 32 139 14.5 22.5 0.00 0.00 0.00 61 1011.2
20260905220335 33 126 3.2 6.4 0.00 0.00 0.00 55 1011.1
20260905215340 33 162 1.6 4.8 0.00 0.00 0.00 52 1011.0
20260905214326 33 124 1.6 3.2 0.00 0.00 0.00 55 1011.1
20260905213331 33 124 0.0 4.8 0.00 0.00 0.00 55 1011.3